Time,TemperatureF,DewpointF,PressureIn,WindDirection,WindDirectionDegrees,WindSpeedMPH,WindSpeedGustMPH,Humidity,HourlyPrecipIn,Conditions,Clouds,dailyrainin,SoftwareType,DateUTC
2013-05-25 00:01:00,45.0,35.0,26.97,SSE,157,0.0,6.0,65,0.00,,,0.00,Rainwise IP-100,2013-05-25 06:01:00,
2013-05-25 00:06:00,45.0,35.0,26.97,SSE,157,3.0,5.0,65,0.00,,,0.00,Rainwise IP-100,2013-05-25 06:06:00,
2013-05-25 00:11:00,45.0,35.0,26.97,SE,135,2.0,6.0,66,0.00,,,0.00,Rainwise IP-100,2013-05-25 06:11:00,
2013-05-25 00:16:00,44.0,33.0,26.97,SE,135,0.0,3.0,66,0.00,,,0.00,Rainwise IP-100,2013-05-25 06:16:00,
2013-05-25 00:21:00,44.0,35.0,26.98,ENE,67,1.0,4.0,68,0.00,,,0.00,Rainwise IP-100,2013-05-25 06:21:00,
2013-05-25 00:26:00,43.0,35.0,26.98,ESE,112,0.0,4.0,70,0.00,,,0.00,Rainwise IP-100,2013-05-25 06:26:00,
2013-05-25 00:31:00,43.0,35.0,26.99,ENE,67,1.0,4.0,71,0.00,,,0.00,Rainwise IP-100,2013-05-25 06:31:00,
2013-05-25 00:36:00,42.0,33.0,26.99,ENE,67,0.0,3.0,70,0.00,,,0.00,Rainwise IP-100,2013-05-25 06:36:00,
2013-05-25 00:41:00,42.0,33.0,26.99,ENE,67,0.0,0.0,71,0.00,,,0.00,Rainwise IP-100,2013-05-25 06:41:00,
2013-05-25 00:46:00,42.0,33.0,26.99,ENE,67,2.0,2.0,72,0.00,,,0.00,Rainwise IP-100,2013-05-25 06:46:00,
2013-05-25 00:51:00,42.0,33.0,26.99,NE,45,0.0,3.0,71,0.00,,,0.00,Rainwise IP-100,2013-05-25 06:51:00,
2013-05-25 00:56:00,42.0,33.0,26.99,NE,45,0.0,1.0,71,0.00,,,0.00,Rainwise IP-100,2013-05-25 06:56:00,
2013-05-25 01:01:00,42.0,33.0,26.98,NE,45,0.0,0.0,71,0.00,,,0.00,Rainwise IP-100,2013-05-25 07:01:00,
2013-05-25 01:06:00,41.0,33.0,26.98,NE,45,0.0,0.0,73,0.00,,,0.00,Rainwise IP-100,2013-05-25 07:06:00,
2013-05-25 01:11:00,41.0,35.0,26.99,East,90,1.0,0.0,78,0.00,,,0.00,Rainwise IP-100,2013-05-25 07:11:00,
2013-05-25 01:16:00,40.0,33.0,26.99,ESE,112,0.0,4.0,77,0.00,,,0.00,Rainwise IP-100,2013-05-25 07:16:00,
2013-05-25 01:21:00,41.0,35.0,26.99,East,90,0.0,5.0,78,0.00,,,0.00,Rainwise IP-100,2013-05-25 07:21:00,
2013-05-25 01:26:00,41.0,35.0,26.99,ESE,112,3.0,5.0,77,0.00,,,0.00,Rainwise IP-100,2013-05-25 07:26:00,
2013-05-25 01:31:00,41.0,35.0,26.99,SSE,157,0.0,4.0,76,0.00,,,0.00,Rainwise IP-100,2013-05-25 07:31:00,
2013-05-25 01:36:00,40.0,33.0,26.99,East,90,0.0,3.0,76,0.00,,,0.00,Rainwise IP-100,2013-05-25 07:36:00,
2013-05-25 01:41:00,40.0,35.0,27.00,SSE,157,1.0,0.0,78,0.00,,,0.00,Rainwise IP-100,2013-05-25 07:41:00,
2013-05-25 01:46:00,40.0,35.0,27.00,WSW,247,2.0,4.0,80,0.00,,,0.00,Rainwise IP-100,2013-05-25 07:46:00,
2013-05-25 01:51:00,39.0,33.0,27.00,WSW,247,0.0,3.0,80,0.00,,,0.00,Rainwise IP-100,2013-05-25 07:51:00,
2013-05-25 01:56:00,39.0,33.0,27.00,WSW,247,0.0,0.0,80,0.00,,,0.00,Rainwise IP-100,2013-05-25 07:56:00,
2013-05-25 02:01:00,38.0,33.0,27.00,WSW,247,0.0,0.0,81,0.00,,,0.00,Rainwise IP-100,2013-05-25 08:01:00,
2013-05-25 02:06:00,38.0,33.0,27.00,WSW,247,0.0,0.0,82,0.00,,,0.00,Rainwise IP-100,2013-05-25 08:06:00,
2013-05-25 02:11:00,37.0,33.0,27.01,WSW,247,0.0,0.0,86,0.00,,,0.00,Rainwise IP-100,2013-05-25 08:11:00,
2013-05-25 02:16:00,37.0,33.0,27.01,WSW,247,0.0,2.0,87,0.00,,,0.00,Rainwise IP-100,2013-05-25 08:16:00,
2013-05-25 02:21:00,37.0,33.0,27.01,SE,135,1.0,2.0,88,0.00,,,0.00,Rainwise IP-100,2013-05-25 08:21:00,
2013-05-25 02:26:00,37.0,35.0,27.01,SE,135,0.0,2.0,89,0.00,,,0.00,Rainwise IP-100,2013-05-25 08:26:00,
2013-05-25 02:31:00,36.0,33.0,27.01,WSW,247,3.0,3.0,89,0.00,,,0.00,Rainwise IP-100,2013-05-25 08:31:00,
2013-05-25 02:36:00,36.0,33.0,27.01,WSW,247,0.0,4.0,89,0.00,,,0.00,Rainwise IP-100,2013-05-25 08:36:00,
2013-05-25 02:41:00,36.0,33.0,27.01,WSW,247,0.0,0.0,89,0.00,,,0.00,Rainwise IP-100,2013-05-25 08:41:00,
2013-05-25 02:46:00,36.0,33.0,27.01,WSW,247,0.0,0.0,89,0.00,,,0.00,Rainwise IP-100,2013-05-25 08:46:00,
2013-05-25 02:51:00,36.0,33.0,27.01,WSW,247,0.0,1.0,90,0.00,,,0.00,Rainwise IP-100,2013-05-25 08:51:00,
2013-05-25 02:56:00,36.0,33.0,27.01,WSW,247,2.0,3.0,91,0.00,,,0.00,Rainwise IP-100,2013-05-25 08:56:00,
2013-05-25 03:01:00,36.0,33.0,27.01,WSW,247,0.0,4.0,91,0.00,,,0.00,Rainwise IP-100,2013-05-25 09:01:00,
2013-05-25 03:06:00,36.0,33.0,27.01,SSE,157,0.0,4.0,91,0.00,,,0.00,Rainwise IP-100,2013-05-25 09:06:00,
2013-05-25 03:11:00,36.0,33.0,27.01,SSE,157,0.0,0.0,90,0.00,,,0.00,Rainwise IP-100,2013-05-25 09:11:00,
2013-05-25 03:16:00,36.0,33.0,27.01,West,270,1.0,3.0,90,0.00,,,0.00,Rainwise IP-100,2013-05-25 09:16:00,
2013-05-25 03:21:00,36.0,33.0,27.01,West,270,0.0,1.0,90,0.00,,,0.00,Rainwise IP-100,2013-05-25 09:21:00,
2013-05-25 03:26:00,35.0,32.0,27.01,West,270,0.0,0.0,90,0.00,,,0.00,Rainwise IP-100,2013-05-25 09:26:00,
2013-05-25 03:31:00,35.0,32.0,27.02,West,270,0.0,0.0,91,0.00,,,0.00,Rainwise IP-100,2013-05-25 09:31:00,
2013-05-25 03:36:00,35.0,32.0,27.02,West,270,0.0,0.0,92,0.00,,,0.00,Rainwise IP-100,2013-05-25 09:36:00,
2013-05-25 03:41:00,35.0,32.0,27.02,West,270,0.0,0.0,92,0.00,,,0.00,Rainwise IP-100,2013-05-25 09:41:00,
2013-05-25 03:46:00,34.0,33.0,27.02,West,270,0.0,0.0,93,0.00,,,0.00,Rainwise IP-100,2013-05-25 09:46:00,
2013-05-25 03:51:00,34.0,33.0,27.02,West,270,0.0,0.0,94,0.00,,,0.00,Rainwise IP-100,2013-05-25 09:51:00,
2013-05-25 03:56:00,34.0,33.0,27.02,West,270,0.0,0.0,95,0.00,,,0.00,Rainwise IP-100,2013-05-25 09:56:00,
2013-05-25 04:01:00,35.0,33.0,27.02,South,180,4.0,4.0,94,0.00,,,0.00,Rainwise IP-100,2013-05-25 10:01:00,
2013-05-25 04:06:00,36.0,35.0,27.02,SSE,157,3.0,4.0,93,0.00,,,0.00,Rainwise IP-100,2013-05-25 10:06:00,
2013-05-25 04:11:00,36.0,33.0,27.01,SSE,157,0.0,3.0,92,0.00,,,0.00,Rainwise IP-100,2013-05-25 10:11:00,
2013-05-25 04:16:00,35.0,32.0,27.01,SSE,157,0.0,0.0,91,0.00,,,0.00,Rainwise IP-100,2013-05-25 10:16:00,
2013-05-25 04:21:00,35.0,33.0,27.02,SSE,157,0.0,0.0,93,0.00,,,0.00,Rainwise IP-100,2013-05-25 10:21:00,
2013-05-25 04:26:00,34.0,33.0,27.02,SSE,157,0.0,0.0,93,0.00,,,0.00,Rainwise IP-100,2013-05-25 10:26:00,
2013-05-25 04:31:00,34.0,33.0,27.02,SSE,157,0.0,0.0,93,0.00,,,0.00,Rainwise IP-100,2013-05-25 10:31:00,
2013-05-25 04:36:00,34.0,33.0,27.02,SSE,157,0.0,0.0,94,0.00,,,0.00,Rainwise IP-100,2013-05-25 10:36:00,
2013-05-25 04:41:00,34.0,33.0,27.03,SSE,157,0.0,2.0,96,0.00,,,0.00,Rainwise IP-100,2013-05-25 10:41:00,
2013-05-25 04:46:00,34.0,33.0,27.03,SSE,157,2.0,4.0,95,0.00,,,0.00,Rainwise IP-100,2013-05-25 10:46:00,
2013-05-25 04:51:00,34.0,33.0,27.02,SSE,157,0.0,3.0,94,0.00,,,0.00,Rainwise IP-100,2013-05-25 10:51:00,
2013-05-25 04:56:00,34.0,33.0,27.02,SSE,157,0.0,0.0,94,0.00,,,0.00,Rainwise IP-100,2013-05-25 10:56:00,
2013-05-25 05:01:00,34.0,33.0,27.03,SSE,157,0.0,0.0,94,0.00,,,0.00,Rainwise IP-100,2013-05-25 11:01:00,
2013-05-25 05:06:00,34.0,33.0,27.03,SSE,157,0.0,0.0,96,0.00,,,0.00,Rainwise IP-100,2013-05-25 11:06:00,
2013-05-25 05:11:00,33.0,32.0,27.03,SSE,157,0.0,0.0,95,0.00,,,0.00,Rainwise IP-100,2013-05-25 11:11:00,
2013-05-25 05:16:00,33.0,32.0,27.03,SSE,157,0.0,0.0,97,0.00,,,0.00,Rainwise IP-100,2013-05-25 11:16:00,
2013-05-25 05:21:00,34.0,33.0,27.03,SE,135,3.0,3.0,97,0.00,,,0.00,Rainwise IP-100,2013-05-25 11:21:00,
2013-05-25 05:26:00,34.0,33.0,27.03,SSE,157,0.0,6.0,97,0.00,,,0.00,Rainwise IP-100,2013-05-25 11:26:00,
2013-05-25 05:31:00,34.0,33.0,27.03,SE,135,1.0,2.0,96,0.00,,,0.00,Rainwise IP-100,2013-05-25 11:31:00,
2013-05-25 05:36:00,34.0,33.0,27.03,ESE,112,1.0,2.0,96,0.00,,,0.00,Rainwise IP-100,2013-05-25 11:36:00,
2013-05-25 05:41:00,33.0,32.0,27.03,ESE,112,0.0,1.0,95,0.00,,,0.00,Rainwise IP-100,2013-05-25 11:41:00,
2013-05-25 05:46:00,33.0,32.0,27.03,ESE,112,0.0,0.0,96,0.00,,,0.00,Rainwise IP-100,2013-05-25 11:46:00,
2013-05-25 05:51:00,33.0,32.0,27.04,ESE,112,1.0,0.0,96,0.00,,,0.00,Rainwise IP-100,2013-05-25 11:51:00,
2013-05-25 05:56:00,33.0,32.0,27.04,SE,135,0.0,3.0,97,0.00,,,0.00,Rainwise IP-100,2013-05-25 11:56:00,
2013-05-25 06:01:00,33.0,32.0,27.04,SE,135,0.0,0.0,96,0.00,,,0.00,Rainwise IP-100,2013-05-25 12:01:00,
2013-05-25 06:06:00,33.0,32.0,27.04,SE,135,0.0,0.0,96,0.00,,,0.00,Rainwise IP-100,2013-05-25 12:06:00,
2013-05-25 06:11:00,33.0,32.0,27.04,SE,135,1.0,1.0,96,0.00,,,0.00,Rainwise IP-100,2013-05-25 12:11:00,
2013-05-25 06:16:00,33.0,32.0,27.04,SE,135,0.0,3.0,97,0.00,,,0.00,Rainwise IP-100,2013-05-25 12:16:00,
2013-05-25 06:21:00,33.0,32.0,27.05,SE,135,0.0,0.0,96,0.00,,,0.00,Rainwise IP-100,2013-05-25 12:21:00,
2013-05-25 06:26:00,33.0,32.0,27.05,SE,135,0.0,0.0,96,0.00,,,0.00,Rainwise IP-100,2013-05-25 12:26:00,
2013-05-25 06:31:00,33.0,33.0,27.05,ESE,112,0.0,0.0,99,0.00,,,0.00,Rainwise IP-100,2013-05-25 12:31:00,
2013-05-25 06:36:00,34.0,35.0,27.05,ESE,112,0.0,1.0,98,0.00,,,0.00,Rainwise IP-100,2013-05-25 12:36:00,
2013-05-25 06:41:00,35.0,33.0,27.03,ENE,67,1.0,5.0,95,0.00,,,0.00,Rainwise IP-100,2013-05-25 12:41:00,
2013-05-25 06:46:00,36.0,35.0,27.03,East,90,1.0,5.0,95,0.00,,,0.00,Rainwise IP-100,2013-05-25 12:46:00,
2013-05-25 06:51:00,37.0,36.0,27.02,East,90,1.0,4.0,94,0.00,,,0.00,Rainwise IP-100,2013-05-25 12:51:00,
2013-05-25 06:56:00,38.0,36.0,27.02,ESE,112,4.0,6.0,90,0.00,,,0.00,Rainwise IP-100,2013-05-25 12:56:00,
2013-05-25 07:01:00,38.0,35.0,27.01,ESE,112,3.0,6.0,86,0.00,,,0.00,Rainwise IP-100,2013-05-25 13:01:00,
2013-05-25 07:06:00,39.0,37.0,27.01,ENE,67,6.0,6.0,93,0.00,,,0.00,Rainwise IP-100,2013-05-25 13:06:00,
2013-05-25 07:11:00,39.0,35.0,27.00,ESE,112,4.0,7.0,84,0.00,,,0.00,Rainwise IP-100,2013-05-25 13:11:00,
2013-05-25 07:16:00,40.0,36.0,27.00,ENE,67,4.0,6.0,83,0.00,,,0.00,Rainwise IP-100,2013-05-25 13:16:00,
2013-05-25 07:21:00,41.0,36.0,26.99,East,90,2.0,6.0,81,0.00,,,0.00,Rainwise IP-100,2013-05-25 13:21:00,
2013-05-25 07:26:00,41.0,35.0,26.99,NE,45,1.0,4.0,78,0.00,,,0.00,Rainwise IP-100,2013-05-25 13:26:00,
2013-05-25 07:31:00,42.0,36.0,26.99,ENE,67,1.0,6.0,76,0.00,,,0.00,Rainwise IP-100,2013-05-25 13:31:00,
2013-05-25 07:34:00,42.0,35.0,26.99,ENE,67,5.0,6.0,75,0.00,,,0.00,Rainwise IP-100,2013-05-25 13:34:00,
2013-05-25 07:35:00,42.0,35.0,26.99,ENE,67,6.0,6.0,75,0.00,,,0.00,Rainwise IP-100,2013-05-25 13:35:00,
2013-05-25 07:40:00,43.0,36.0,26.98,South,180,2.0,6.0,74,0.00,,,0.00,Rainwise IP-100,2013-05-25 13:40:00,
2013-05-25 07:45:00,44.0,36.0,26.98,ENE,67,0.0,4.0,71,0.00,,,0.00,Rainwise IP-100,2013-05-25 13:45:00,
2013-05-25 07:50:00,44.0,35.0,26.97,North,360,0.0,5.0,69,0.00,,,0.00,Rainwise IP-100,2013-05-25 13:50:00,
2013-05-25 07:55:00,45.0,36.0,26.97,NW,315,3.0,6.0,70,0.00,,,0.00,Rainwise IP-100,2013-05-25 13:55:00,
2013-05-25 08:00:00,44.0,35.0,26.97,WNW,292,1.0,6.0,69,0.00,,,0.00,Rainwise IP-100,2013-05-25 14:00:00,
2013-05-25 08:05:00,45.0,35.0,26.97,ENE,67,1.0,4.0,67,0.00,,,0.00,Rainwise IP-100,2013-05-25 14:05:00,
2013-05-25 08:10:00,45.0,36.0,26.97,NNW,337,3.0,6.0,69,0.00,,,0.00,Rainwise IP-100,2013-05-25 14:10:00,
2013-05-25 08:15:00,44.0,35.0,26.97,West,270,4.0,6.0,70,0.00,,,0.00,Rainwise IP-100,2013-05-25 14:15:00,
2013-05-25 08:20:00,44.0,36.0,26.97,NNW,337,5.0,5.0,73,0.00,,,0.00,Rainwise IP-100,2013-05-25 14:20:00,
2013-05-25 08:25:00,44.0,36.0,26.97,North,360,1.0,6.0,74,0.00,,,0.00,Rainwise IP-100,2013-05-25 14:25:00,
2013-05-25 08:30:00,44.0,36.0,26.97,NNW,337,5.0,5.0,74,0.00,,,0.00,Rainwise IP-100,2013-05-25 14:30:00,
2013-05-25 08:35:00,43.0,36.0,26.97,WNW,292,1.0,6.0,74,0.00,,,0.00,Rainwise IP-100,2013-05-25 14:35:00,
2013-05-25 08:40:00,43.0,36.0,26.97,NNW,337,5.0,5.0,74,0.00,,,0.00,Rainwise IP-100,2013-05-25 14:40:00,
2013-05-25 08:45:00,43.0,36.0,26.97,NW,315,3.0,6.0,74,0.00,,,0.00,Rainwise IP-100,2013-05-25 14:45:00,
2013-05-25 08:50:00,43.0,36.0,26.97,NW,315,1.0,6.0,74,0.00,,,0.00,Rainwise IP-100,2013-05-25 14:50:00,
2013-05-25 08:55:00,43.0,36.0,26.97,North,360,4.0,6.0,75,0.00,,,0.00,Rainwise IP-100,2013-05-25 14:55:00,
2013-05-25 09:00:00,43.0,35.0,26.98,NNW,337,2.0,6.0,73,0.00,,,0.00,Rainwise IP-100,2013-05-25 15:00:00,
2013-05-25 09:05:00,43.0,35.0,26.98,NNW,337,2.0,6.0,73,0.00,,,0.00,Rainwise IP-100,2013-05-25 15:05:00,
2013-05-25 09:10:00,44.0,36.0,26.97,NNW,337,0.0,2.0,72,0.00,,,0.00,Rainwise IP-100,2013-05-25 15:10:00,
2013-05-25 09:15:00,45.0,36.0,26.97,NW,315,3.0,6.0,71,0.00,,,0.00,Rainwise IP-100,2013-05-25 15:15:00,
2013-05-25 09:20:00,45.0,36.0,26.96,NNW,337,6.0,6.0,69,0.00,,,0.00,Rainwise IP-100,2013-05-25 15:20:00,
2013-05-25 09:25:00,45.0,36.0,26.96,North,360,2.0,7.0,69,0.00,,,0.00,Rainwise IP-100,2013-05-25 15:25:00,
2013-05-25 09:30:00,45.0,35.0,26.96,West,270,3.0,7.0,68,0.00,,,0.00,Rainwise IP-100,2013-05-25 15:30:00,
2013-05-25 09:35:00,46.0,36.0,26.96,North,360,3.0,5.0,67,0.00,,,0.00,Rainwise IP-100,2013-05-25 15:35:00,
2013-05-25 09:40:00,46.0,35.0,26.96,South,180,3.0,5.0,66,0.00,,,0.00,Rainwise IP-100,2013-05-25 15:40:00,
2013-05-25 09:45:00,46.0,35.0,26.96,West,270,6.0,7.0,65,0.00,,,0.00,Rainwise IP-100,2013-05-25 15:45:00,
2013-05-25 09:50:00,46.0,35.0,26.95,WSW,247,1.0,6.0,66,0.00,,,0.00,Rainwise IP-100,2013-05-25 15:50:00,
2013-05-25 09:55:00,47.0,36.0,26.95,East,90,0.0,4.0,65,0.00,,,0.00,Rainwise IP-100,2013-05-25 15:55:00,
2013-05-25 10:00:00,47.0,35.0,26.94,NE,45,4.0,5.0,62,0.00,,,0.00,Rainwise IP-100,2013-05-25 16:00:00,
2013-05-25 10:05:00,47.0,35.0,26.94,SSE,157,2.0,6.0,64,0.00,,,0.00,Rainwise IP-100,2013-05-25 16:05:00,
2013-05-25 10:10:00,48.0,36.0,26.94,SSE,157,2.0,5.0,63,0.00,,,0.00,Rainwise IP-100,2013-05-25 16:10:00,
2013-05-25 10:15:00,48.0,36.0,26.94,SSE,157,4.0,4.0,62,0.00,,,0.00,Rainwise IP-100,2013-05-25 16:15:00,
2013-05-25 10:20:00,48.0,36.0,26.93,East,90,3.0,4.0,62,0.00,,,0.00,Rainwise IP-100,2013-05-25 16:20:00,
2013-05-25 10:25:00,48.0,36.0,26.93,East,90,2.0,4.0,62,0.00,,,0.00,Rainwise IP-100,2013-05-25 16:25:00,
2013-05-25 10:30:00,49.0,37.0,26.93,NW,315,2.0,3.0,62,0.00,,,0.00,Rainwise IP-100,2013-05-25 16:30:00,
2013-05-25 10:35:00,49.0,36.0,26.93,North,360,0.0,4.0,61,0.00,,,0.00,Rainwise IP-100,2013-05-25 16:35:00,
2013-05-25 10:40:00,50.0,36.0,26.92,West,270,3.0,6.0,58,0.00,,,0.00,Rainwise IP-100,2013-05-25 16:40:00,
2013-05-25 10:45:00,51.0,37.0,26.92,NW,315,1.0,6.0,59,0.00,,,0.00,Rainwise IP-100,2013-05-25 16:45:00,
2013-05-25 10:50:00,51.0,36.0,26.91,SW,225,0.0,6.0,56,0.00,,,0.00,Rainwise IP-100,2013-05-25 16:50:00,
2013-05-25 10:55:00,53.0,37.0,26.91,NNW,337,4.0,6.0,54,0.00,,,0.00,Rainwise IP-100,2013-05-25 16:55:00,
2013-05-25 11:00:00,54.0,36.0,26.89,NNW,337,2.0,6.0,49,0.00,,,0.00,Rainwise IP-100,2013-05-25 17:00:00,
2013-05-25 11:05:00,55.0,36.0,26.89,NE,45,1.0,6.0,47,0.00,,,0.00,Rainwise IP-100,2013-05-25 17:05:00,
2013-05-25 11:10:00,56.0,37.0,26.88,NNW,337,1.0,5.0,48,0.00,,,0.00,Rainwise IP-100,2013-05-25 17:10:00,
2013-05-25 11:15:00,57.0,36.0,26.88,NE,45,0.0,6.0,44,0.00,,,0.00,Rainwise IP-100,2013-05-25 17:15:00,
2013-05-25 11:20:00,56.0,33.0,26.87,NNW,337,6.0,6.0,43,0.00,,,0.00,Rainwise IP-100,2013-05-25 17:20:00,
2013-05-25 11:25:00,56.0,35.0,26.87,NNW,337,6.0,8.0,44,0.00,,,0.00,Rainwise IP-100,2013-05-25 17:25:00,
2013-05-25 11:30:00,56.0,35.0,26.88,North,360,6.0,7.0,45,0.00,,,0.00,Rainwise IP-100,2013-05-25 17:30:00,
2013-05-25 11:35:00,57.0,37.0,26.88,NNW,337,2.0,7.0,46,0.00,,,0.00,Rainwise IP-100,2013-05-25 17:35:00,
2013-05-25 11:40:00,57.0,35.0,26.87,NE,45,4.0,7.0,42,0.00,,,0.00,Rainwise IP-100,2013-05-25 17:40:00,
2013-05-25 11:45:00,57.0,35.0,26.87,ENE,67,2.0,7.0,43,0.00,,,0.00,Rainwise IP-100,2013-05-25 17:45:00,
2013-05-25 11:50:00,58.0,36.0,26.87,NNW,337,4.0,7.0,42,0.00,,,0.00,Rainwise IP-100,2013-05-25 17:50:00,
2013-05-25 11:55:00,58.0,33.0,26.87,WSW,247,0.0,7.0,39,0.00,,,0.00,Rainwise IP-100,2013-05-25 17:55:00,
2013-05-25 12:00:00,58.0,33.0,26.86,NW,315,8.0,9.0,39,0.00,,,0.00,Rainwise IP-100,2013-05-25 18:00:00,
2013-05-25 12:05:00,57.0,32.0,26.86,WSW,247,6.0,9.0,39,0.00,,,0.00,Rainwise IP-100,2013-05-25 18:05:00,
2013-05-25 12:10:00,57.0,32.0,26.87,WNW,292,6.0,9.0,39,0.00,,,0.00,Rainwise IP-100,2013-05-25 18:10:00,
2013-05-25 12:15:00,58.0,33.0,26.87,NW,315,6.0,7.0,38,0.00,,,0.00,Rainwise IP-100,2013-05-25 18:15:00,
2013-05-25 12:20:00,57.0,33.0,26.87,NNW,337,2.0,9.0,40,0.00,,,0.00,Rainwise IP-100,2013-05-25 18:20:00,
2013-05-25 12:25:00,58.0,33.0,26.87,NE,45,2.0,7.0,39,0.00,,,0.00,Rainwise IP-100,2013-05-25 18:25:00,
2013-05-25 12:30:00,58.0,33.0,26.86,NE,45,5.0,9.0,38,0.00,,,0.00,Rainwise IP-100,2013-05-25 18:30:00,
2013-05-25 12:35:00,58.0,33.0,26.86,SSE,157,2.0,6.0,38,0.00,,,0.00,Rainwise IP-100,2013-05-25 18:35:00,
2013-05-25 12:40:00,59.0,31.0,26.85,ENE,67,2.0,7.0,33,0.00,,,0.00,Rainwise IP-100,2013-05-25 18:40:00,
2013-05-25 12:45:00,58.0,29.0,26.85,WNW,292,4.0,9.0,33,0.00,,,0.00,Rainwise IP-100,2013-05-25 18:45:00,
2013-05-25 12:50:00,59.0,31.0,26.85,WNW,292,1.0,8.0,34,0.00,,,0.00,Rainwise IP-100,2013-05-25 18:50:00,
2013-05-25 12:55:00,59.0,32.0,26.85,NW,315,3.0,8.0,35,0.00,,,0.00,Rainwise IP-100,2013-05-25 18:55:00,
2013-05-25 13:00:00,61.0,29.0,26.84,ESE,112,1.0,7.0,30,0.00,,,0.00,Rainwise IP-100,2013-05-25 19:00:00,
2013-05-25 13:05:00,60.0,31.0,26.84,North,360,6.0,9.0,32,0.00,,,0.00,Rainwise IP-100,2013-05-25 19:05:00,
2013-05-25 13:10:00,60.0,32.0,26.85,NNE,22,6.0,9.0,35,0.00,,,0.00,Rainwise IP-100,2013-05-25 19:10:00,
2013-05-25 13:15:00,60.0,32.0,26.85,SE,135,6.0,9.0,34,0.00,,,0.00,Rainwise IP-100,2013-05-25 19:15:00,
2013-05-25 13:20:00,60.0,31.0,26.84,ESE,112,6.0,10.0,33,0.00,,,0.00,Rainwise IP-100,2013-05-25 19:20:00,
2013-05-25 13:25:00,59.0,31.0,26.84,ENE,67,4.0,11.0,34,0.00,,,0.00,Rainwise IP-100,2013-05-25 19:25:00,
2013-05-25 13:30:00,61.0,31.0,26.84,NW,315,6.0,10.0,32,0.00,,,0.00,Rainwise IP-100,2013-05-25 19:30:00,
2013-05-25 13:35:00,61.0,33.0,26.84,NNE,22,6.0,9.0,35,0.00,,,0.00,Rainwise IP-100,2013-05-25 19:35:00,
2013-05-25 13:40:00,61.0,33.0,26.83,ENE,67,1.0,8.0,35,0.00,,,0.00,Rainwise IP-100,2013-05-25 19:40:00,
2013-05-25 13:45:00,61.0,32.0,26.83,SE,135,2.0,10.0,34,0.00,,,0.00,Rainwise IP-100,2013-05-25 19:45:00,
2013-05-25 13:50:00,60.0,33.0,26.84,SW,225,1.0,6.0,36,0.00,,,0.00,Rainwise IP-100,2013-05-25 19:50:00,
2013-05-25 13:55:00,60.0,33.0,26.84,WNW,292,2.0,8.0,36,0.00,,,0.00,Rainwise IP-100,2013-05-25 19:55:00,
2013-05-25 14:00:00,61.0,32.0,26.83,North,360,0.0,7.0,34,0.00,,,0.00,Rainwise IP-100,2013-05-25 20:00:00,
2013-05-25 14:05:00,62.0,33.0,26.83,WNW,292,1.0,7.0,34,0.00,,,0.00,Rainwise IP-100,2013-05-25 20:05:00,
2013-05-25 14:10:00,62.0,32.0,26.82,East,90,4.0,6.0,33,0.00,,,0.00,Rainwise IP-100,2013-05-25 20:10:00,
2013-05-25 14:15:00,62.0,32.0,26.82,WNW,292,5.0,9.0,33,0.00,,,0.00,Rainwise IP-100,2013-05-25 20:15:00,
2013-05-25 14:20:00,61.0,32.0,26.83,NW,315,4.0,9.0,34,0.00,,,0.00,Rainwise IP-100,2013-05-25 20:20:00,
2013-05-25 14:25:00,61.0,32.0,26.83,NNE,22,6.0,7.0,34,0.00,,,0.00,Rainwise IP-100,2013-05-25 20:25:00,
2013-05-25 14:30:00,61.0,33.0,26.83,WNW,292,6.0,7.0,35,0.00,,,0.00,Rainwise IP-100,2013-05-25 20:30:00,
2013-05-25 14:35:00,60.0,33.0,26.83,North,360,3.0,8.0,36,0.00,,,0.00,Rainwise IP-100,2013-05-25 20:35:00,
2013-05-25 14:40:00,60.0,33.0,26.83,NW,315,5.0,10.0,36,0.00,,,0.00,Rainwise IP-100,2013-05-25 20:40:00,
2013-05-25 14:45:00,61.0,33.0,26.83,North,360,7.0,8.0,35,0.00,,,0.00,Rainwise IP-100,2013-05-25 20:45:00,
2013-05-25 14:50:00,62.0,32.0,26.82,West,270,5.0,12.0,33,0.00,,,0.00,Rainwise IP-100,2013-05-25 20:50:00,
2013-05-25 14:55:00,63.0,35.0,26.82,NNW,337,11.0,11.0,34,0.00,,,0.00,Rainwise IP-100,2013-05-25 20:55:00,
2013-05-25 15:00:00,64.0,33.0,26.81,North,360,7.0,12.0,31,0.00,,,0.00,Rainwise IP-100,2013-05-25 21:00:00,
2013-05-25 15:05:00,64.0,33.0,26.81,NNW,337,6.0,11.0,31,0.00,,,0.00,Rainwise IP-100,2013-05-25 21:05:00,
2013-05-25 15:10:00,63.0,32.0,26.81,WSW,247,6.0,10.0,31,0.00,,,0.00,Rainwise IP-100,2013-05-25 21:10:00,
2013-05-25 15:15:00,63.0,32.0,26.81,West,270,7.0,10.0,31,0.00,,,0.00,Rainwise IP-100,2013-05-25 21:15:00,
2013-05-25 15:20:00,64.0,33.0,26.81,West,270,6.0,9.0,32,0.00,,,0.00,Rainwise IP-100,2013-05-25 21:20:00,
2013-05-25 15:25:00,63.0,32.0,26.81,WNW,292,1.0,9.0,31,0.00,,,0.00,Rainwise IP-100,2013-05-25 21:25:00,
2013-05-25 15:30:00,64.0,32.0,26.80,ENE,67,5.0,7.0,30,0.00,,,0.00,Rainwise IP-100,2013-05-25 21:30:00,
2013-05-25 15:35:00,64.0,33.0,26.80,SSE,157,2.0,7.0,32,0.00,,,0.00,Rainwise IP-100,2013-05-25 21:35:00,
2013-05-25 15:40:00,65.0,32.0,26.80,East,90,6.0,7.0,29,0.00,,,0.00,Rainwise IP-100,2013-05-25 21:40:00,
2013-05-25 15:45:00,64.0,32.0,26.80,North,360,2.0,9.0,30,0.00,,,0.00,Rainwise IP-100,2013-05-25 21:45:00,
2013-05-25 15:50:00,64.0,32.0,26.80,NE,45,7.0,7.0,30,0.00,,,0.00,Rainwise IP-100,2013-05-25 21:50:00,
2013-05-25 15:55:00,63.0,32.0,26.80,ENE,67,4.0,10.0,31,0.00,,,0.00,Rainwise IP-100,2013-05-25 21:55:00,
2013-05-25 16:00:00,65.0,33.0,26.80,West,270,10.0,10.0,30,0.00,,,0.00,Rainwise IP-100,2013-05-25 22:00:00,
2013-05-25 16:05:00,63.0,33.0,26.80,WNW,292,5.0,12.0,32,0.00,,,0.00,Rainwise IP-100,2013-05-25 22:05:00,
2013-05-25 16:10:00,63.0,32.0,26.81,NNW,337,7.0,9.0,31,0.00,,,0.00,Rainwise IP-100,2013-05-25 22:10:00,
2013-05-25 16:15:00,62.0,32.0,26.81,West,270,4.0,8.0,33,0.00,,,0.00,Rainwise IP-100,2013-05-25 22:15:00,
2013-05-25 16:20:00,63.0,33.0,26.81,NNW,337,1.0,8.0,32,0.00,,,0.00,Rainwise IP-100,2013-05-25 22:20:00,
2013-05-25 16:25:00,64.0,33.0,26.81,WNW,292,6.0,9.0,32,0.00,,,0.00,Rainwise IP-100,2013-05-25 22:25:00,
2013-05-25 16:30:00,63.0,33.0,26.81,NW,315,4.0,7.0,33,0.00,,,0.00,Rainwise IP-100,2013-05-25 22:30:00,
2013-05-25 16:35:00,64.0,31.0,26.81,NNE,22,3.0,7.0,29,0.00,,,0.00,Rainwise IP-100,2013-05-25 22:35:00,
2013-05-25 16:40:00,63.0,31.0,26.81,West,270,6.0,9.0,29,0.00,,,0.00,Rainwise IP-100,2013-05-25 22:40:00,
2013-05-25 16:45:00,62.0,31.0,26.81,NNW,337,6.0,10.0,31,0.00,,,0.00,Rainwise IP-100,2013-05-25 22:45:00,
2013-05-25 16:50:00,62.0,31.0,26.82,NNW,337,6.0,9.0,31,0.00,,,0.00,Rainwise IP-100,2013-05-25 22:50:00,
2013-05-25 16:55:00,62.0,31.0,26.82,West,270,6.0,9.0,31,0.00,,,0.00,Rainwise IP-100,2013-05-25 22:55:00,
2013-05-25 17:00:00,62.0,32.0,26.82,NNW,337,5.0,8.0,33,0.00,,,0.00,Rainwise IP-100,2013-05-25 23:00:00,
2013-05-25 17:05:00,62.0,32.0,26.82,NW,315,5.0,7.0,32,0.00,,,0.00,Rainwise IP-100,2013-05-25 23:05:00,
2013-05-25 17:10:00,62.0,32.0,26.82,WSW,247,3.0,7.0,33,0.00,,,0.00,Rainwise IP-100,2013-05-25 23:10:00,
2013-05-25 17:15:00,62.0,32.0,26.82,NNW,337,3.0,7.0,32,0.00,,,0.00,Rainwise IP-100,2013-05-25 23:15:00,
2013-05-25 17:20:00,63.0,32.0,26.81,NW,315,0.0,7.0,31,0.00,,,0.00,Rainwise IP-100,2013-05-25 23:20:00,
2013-05-25 17:25:00,64.0,33.0,26.81,WSW,247,2.0,7.0,32,0.00,,,0.00,Rainwise IP-100,2013-05-25 23:25:00,
2013-05-25 17:30:00,65.0,32.0,26.80,WSW,247,5.0,9.0,29,0.00,,,0.00,Rainwise IP-100,2013-05-25 23:30:00,
2013-05-25 17:35:00,65.0,35.0,26.80,NNW,337,5.0,7.0,32,0.00,,,0.00,Rainwise IP-100,2013-05-25 23:35:00,
2013-05-25 17:40:00,64.0,32.0,26.80,NW,315,6.0,11.0,30,0.00,,,0.00,Rainwise IP-100,2013-05-25 23:40:00,
2013-05-25 17:45:00,63.0,32.0,26.80,NW,315,6.0,9.0,31,0.00,,,0.00,Rainwise IP-100,2013-05-25 23:45:00,
2013-05-25 17:50:00,63.0,32.0,26.81,WNW,292,6.0,7.0,31,0.00,,,0.00,Rainwise IP-100,2013-05-25 23:50:00,
2013-05-25 17:55:00,63.0,32.0,26.81,North,360,3.0,7.0,31,0.00,,,0.00,Rainwise IP-100,2013-05-25 23:55:00,
2013-05-25 18:00:00,63.0,32.0,26.81,NW,315,7.0,12.0,31,0.00,,,0.00,Rainwise IP-100,2013-05-26 00:00:00,
2013-05-25 18:05:00,62.0,31.0,26.81,NNW,337,7.0,9.0,31,0.00,,,0.00,Rainwise IP-100,2013-05-26 00:05:00,
2013-05-25 18:10:00,62.0,31.0,26.82,NW,315,12.0,12.0,30,0.00,,,0.00,Rainwise IP-100,2013-05-26 00:10:00,
2013-05-25 18:15:00,62.0,32.0,26.82,NW,315,2.0,12.0,32,0.00,,,0.00,Rainwise IP-100,2013-05-26 00:15:00,
2013-05-25 18:20:00,63.0,33.0,26.81,NNW,337,5.0,8.0,32,0.00,,,0.00,Rainwise IP-100,2013-05-26 00:20:00,
2013-05-25 18:25:00,63.0,32.0,26.81,WNW,292,2.0,10.0,31,0.00,,,0.00,Rainwise IP-100,2013-05-26 00:25:00,
2013-05-25 18:30:00,63.0,32.0,26.81,NNW,337,0.0,8.0,31,0.00,,,0.00,Rainwise IP-100,2013-05-26 00:30:00,
2013-05-25 18:35:00,63.0,33.0,26.81,WNW,292,3.0,7.0,32,0.00,,,0.00,Rainwise IP-100,2013-05-26 00:35:00,
2013-05-25 18:40:00,62.0,31.0,26.81,West,270,1.0,7.0,31,0.00,,,0.00,Rainwise IP-100,2013-05-26 00:40:00,
2013-05-25 18:45:00,62.0,32.0,26.81,North,360,9.0,9.0,32,0.00,,,0.00,Rainwise IP-100,2013-05-26 00:45:00,
2013-05-25 18:50:00,62.0,32.0,26.82,NNW,337,9.0,10.0,32,0.00,,,0.00,Rainwise IP-100,2013-05-26 00:50:00,
2013-05-25 18:55:00,62.0,32.0,26.82,WNW,292,4.0,10.0,33,0.00,,,0.00,Rainwise IP-100,2013-05-26 00:55:00,
2013-05-25 19:00:00,62.0,32.0,26.82,North,360,4.0,6.0,32,0.00,,,0.00,Rainwise IP-100,2013-05-26 01:00:00,
2013-05-25 19:05:00,62.0,32.0,26.82,NNW,337,4.0,8.0,33,0.00,,,0.00,Rainwise IP-100,2013-05-26 01:05:00,
2013-05-25 19:10:00,62.0,32.0,26.82,WNW,292,3.0,10.0,33,0.00,,,0.00,Rainwise IP-100,2013-05-26 01:10:00,
2013-05-25 19:15:00,62.0,33.0,26.82,NW,315,1.0,7.0,34,0.00,,,0.00,Rainwise IP-100,2013-05-26 01:15:00,
2013-05-25 19:20:00,62.0,32.0,26.82,WNW,292,3.0,6.0,32,0.00,,,0.00,Rainwise IP-100,2013-05-26 01:20:00,
2013-05-25 19:25:00,61.0,32.0,26.82,WNW,292,4.0,6.0,33,0.00,,,0.00,Rainwise IP-100,2013-05-26 01:25:00,
2013-05-25 19:30:00,61.0,33.0,26.83,WNW,292,3.0,7.0,35,0.00,,,0.00,Rainwise IP-100,2013-05-26 01:30:00,
2013-05-25 19:35:00,61.0,33.0,26.83,NW,315,2.0,6.0,36,0.00,,,0.00,Rainwise IP-100,2013-05-26 01:35:00,
2013-05-25 19:40:00,61.0,33.0,26.83,NW,315,3.0,9.0,36,0.00,,,0.00,Rainwise IP-100,2013-05-26 01:40:00,
2013-05-25 19:45:00,61.0,33.0,26.83,NNW,337,4.0,6.0,35,0.00,,,0.00,Rainwise IP-100,2013-05-26 01:45:00,
2013-05-25 19:50:00,62.0,32.0,26.82,WSW,247,0.0,6.0,33,0.00,,,0.00,Rainwise IP-100,2013-05-26 01:50:00,
2013-05-25 19:55:00,62.0,32.0,26.82,WNW,292,1.0,7.0,33,0.00,,,0.00,Rainwise IP-100,2013-05-26 01:55:00,
2013-05-25 20:00:00,63.0,33.0,26.81,NW,315,1.0,7.0,33,0.00,,,0.00,Rainwise IP-100,2013-05-26 02:00:00,
2013-05-25 20:05:00,62.0,32.0,26.81,WNW,292,2.0,8.0,33,0.00,,,0.00,Rainwise IP-100,2013-05-26 02:05:00,
2013-05-25 20:10:00,61.0,32.0,26.83,NNW,337,2.0,6.0,33,0.00,,,0.00,Rainwise IP-100,2013-05-26 02:10:00,
2013-05-25 20:15:00,61.0,33.0,26.83,West,270,3.0,6.0,36,0.00,,,0.00,Rainwise IP-100,2013-05-26 02:15:00,
2013-05-25 20:20:00,60.0,33.0,26.83,West,270,2.0,4.0,36,0.00,,,0.00,Rainwise IP-100,2013-05-26 02:20:00,
2013-05-25 20:25:00,60.0,35.0,26.83,West,270,2.0,5.0,38,0.00,,,0.00,Rainwise IP-100,2013-05-26 02:25:00,
2013-05-25 20:30:00,60.0,35.0,26.83,West,270,2.0,5.0,39,0.00,,,0.00,Rainwise IP-100,2013-05-26 02:30:00,
2013-05-25 20:35:00,59.0,36.0,26.83,WSW,247,2.0,6.0,41,0.00,,,0.00,Rainwise IP-100,2013-05-26 02:35:00,
2013-05-25 20:40:00,59.0,37.0,26.84,WNW,292,5.0,6.0,43,0.00,,,0.00,Rainwise IP-100,2013-05-26 02:40:00,
2013-05-25 20:45:00,58.0,36.0,26.84,WNW,292,4.0,7.0,43,0.00,,,0.00,Rainwise IP-100,2013-05-26 02:45:00,
2013-05-25 20:50:00,58.0,36.0,26.85,WNW,292,0.0,4.0,43,0.00,,,0.00,Rainwise IP-100,2013-05-26 02:50:00,
2013-05-25 20:55:00,57.0,36.0,26.85,WNW,292,0.0,0.0,45,0.00,,,0.00,Rainwise IP-100,2013-05-26 02:55:00,
2013-05-25 21:00:00,56.0,36.0,26.86,West,270,0.0,0.0,47,0.00,,,0.00,Rainwise IP-100,2013-05-26 03:00:00,
2013-05-25 21:05:00,56.0,37.0,26.86,SW,225,0.0,3.0,49,0.00,,,0.00,Rainwise IP-100,2013-05-26 03:05:00,
2013-05-25 21:10:00,55.0,37.0,26.87,SW,225,0.0,2.0,50,0.00,,,0.00,Rainwise IP-100,2013-05-26 03:10:00,
2013-05-25 21:15:00,54.0,36.0,26.87,SW,225,0.0,0.0,51,0.00,,,0.00,Rainwise IP-100,2013-05-26 03:15:00,
2013-05-25 21:20:00,54.0,37.0,26.88,SW,225,0.0,0.0,53,0.00,,,0.00,Rainwise IP-100,2013-05-26 03:20:00,
2013-05-25 21:25:00,53.0,37.0,26.88,SW,225,0.0,1.0,54,0.00,,,0.00,Rainwise IP-100,2013-05-26 03:25:00,
2013-05-25 21:30:00,53.0,37.0,26.88,SW,225,0.0,0.0,55,0.00,,,0.00,Rainwise IP-100,2013-05-26 03:30:00,
2013-05-25 21:35:00,52.0,37.0,26.88,SW,225,0.0,1.0,56,0.00,,,0.00,Rainwise IP-100,2013-05-26 03:35:00,
2013-05-25 21:40:00,52.0,37.0,26.89,SW,225,0.0,0.0,57,0.00,,,0.00,Rainwise IP-100,2013-05-26 03:40:00,
2013-05-25 21:45:00,51.0,38.0,26.89,SW,225,0.0,0.0,60,0.00,,,0.00,Rainwise IP-100,2013-05-26 03:45:00,
2013-05-25 21:50:00,51.0,38.0,26.90,SW,225,0.0,0.0,61,0.00,,,0.00,Rainwise IP-100,2013-05-26 03:50:00,
2013-05-25 21:55:00,51.0,38.0,26.90,SW,225,0.0,1.0,60,0.00,,,0.00,Rainwise IP-100,2013-05-26 03:55:00,
2013-05-25 22:00:00,51.0,38.0,26.90,SW,225,0.0,0.0,60,0.00,,,0.00,Rainwise IP-100,2013-05-26 04:00:00,
2013-05-25 22:01:00,51.0,38.0,26.90,SW,225,0.0,0.0,60,0.00,,,0.00,Rainwise IP-100,2013-05-26 04:01:00,
2013-05-25 22:06:00,50.0,37.0,26.90,SW,225,2.0,2.0,62,0.00,,,0.00,Rainwise IP-100,2013-05-26 04:06:00,
2013-05-25 22:11:00,50.0,37.0,26.91,SSE,157,4.0,4.0,61,0.00,,,0.00,Rainwise IP-100,2013-05-26 04:11:00,
2013-05-25 22:16:00,50.0,37.0,26.91,SSE,157,0.0,4.0,61,0.00,,,0.00,Rainwise IP-100,2013-05-26 04:16:00,
2013-05-25 22:21:00,50.0,37.0,26.91,SSE,157,4.0,4.0,62,0.00,,,0.00,Rainwise IP-100,2013-05-26 04:21:00,
2013-05-25 22:26:00,50.0,37.0,26.91,SSE,157,0.0,4.0,62,0.00,,,0.00,Rainwise IP-100,2013-05-26 04:26:00,
2013-05-25 22:31:00,49.0,37.0,26.91,SSE,157,0.0,0.0,63,0.00,,,0.00,Rainwise IP-100,2013-05-26 04:31:00,
2013-05-25 22:36:00,49.0,37.0,26.91,SSE,157,0.0,0.0,64,0.00,,,0.00,Rainwise IP-100,2013-05-26 04:36:00,
2013-05-25 22:41:00,48.0,38.0,26.93,SSE,157,0.0,0.0,68,0.00,,,0.00,Rainwise IP-100,2013-05-26 04:41:00,
2013-05-25 22:46:00,48.0,38.0,26.93,ESE,112,2.0,2.0,67,0.00,,,0.00,Rainwise IP-100,2013-05-26 04:46:00,
2013-05-25 22:51:00,48.0,38.0,26.93,SE,135,1.0,3.0,67,0.00,,,0.00,Rainwise IP-100,2013-05-26 04:51:00,
2013-05-25 22:56:00,48.0,38.0,26.93,SE,135,2.0,3.0,67,0.00,,,0.00,Rainwise IP-100,2013-05-26 04:56:00,
2013-05-25 23:01:00,48.0,38.0,26.93,SSE,157,3.0,3.0,67,0.00,,,0.00,Rainwise IP-100,2013-05-26 05:01:00,
2013-05-25 23:06:00,48.0,38.0,26.93,SSE,157,1.0,4.0,67,0.00,,,0.00,Rainwise IP-100,2013-05-26 05:06:00,
2013-05-25 23:11:00,48.0,38.0,26.93,SE,135,2.0,4.0,67,0.00,,,0.00,Rainwise IP-100,2013-05-26 05:11:00,
2013-05-25 23:16:00,48.0,38.0,26.93,ESE,112,1.0,6.0,67,0.00,,,0.00,Rainwise IP-100,2013-05-26 05:16:00,
2013-05-25 23:21:00,48.0,37.0,26.93,SE,135,0.0,4.0,65,0.00,,,0.00,Rainwise IP-100,2013-05-26 05:21:00,
2013-05-25 23:26:00,47.0,36.0,26.93,ESE,112,0.0,2.0,65,0.00,,,0.00,Rainwise IP-100,2013-05-26 05:26:00,
2013-05-25 23:31:00,47.0,36.0,26.94,ESE,112,1.0,2.0,67,0.00,,,0.00,Rainwise IP-100,2013-05-26 05:31:00,
2013-05-25 23:36:00,47.0,36.0,26.94,SE,135,2.0,5.0,67,0.00,,,0.00,Rainwise IP-100,2013-05-26 05:36:00,
2013-05-25 23:41:00,47.0,36.0,26.94,SE,135,3.0,5.0,67,0.00,,,0.00,Rainwise IP-100,2013-05-26 05:41:00,
2013-05-25 23:46:00,47.0,36.0,26.94,ESE,112,0.0,4.0,66,0.00,,,0.00,Rainwise IP-100,2013-05-26 05:46:00,
2013-05-25 23:51:00,47.0,36.0,26.94,SE,135,0.0,3.0,66,0.00,,,0.00,Rainwise IP-100,2013-05-26 05:51:00,
2013-05-25 23:56:00,46.0,36.0,26.94,SSE,157,1.0,3.0,67,0.00,,,0.00,Rainwise IP-100,2013-05-26 05:56:00,